WX2U Weather Reports


time (UTC)temp
C
wind
direction
speed
KPH
gust
KPH
rain 1hr
cm
rain 24hr
cm
rain mn
cm
humidity
%
barometer
mb
20260901024004 20 24 0.0 0.0 0.00 0.00 0.00 92 1017.9
20260901023003 20 24 0.0 0.0 0.00 0.00 0.00 92 1018.1
20260901022003 20 24 0.0 0.0 0.00 0.00 0.00 92 1018.2
20260901020004 20 24 0.0 0.0 0.00 0.00 0.00 92 1018.1
20260901015004 20 24 0.0 0.0 0.00 0.00 0.00 92 1018.1
20260901013004 20 24 0.0 0.0 0.00 0.00 0.00 92 1018.0
20260901012003 20 24 0.0 0.0 0.00 0.00 0.00 91 1018.0
20260901011003 20 24 0.0 0.0 0.00 0.00 0.00 91 1018.0
20260901010003 20 24 0.0 0.0 0.00 0.00 0.00 91 1017.9
20260901004003 20 24 0.0 0.0 0.00 0.00 0.00 90 1018.1
20260901003003 20 24 0.0 0.0 0.00 0.00 0.00 90 1018.0
20260901002003 20 24 0.0 0.0 0.00 0.00 0.00 89 1017.9
20260901001003 20 24 0.0 0.0 0.00 0.00 0.00 89 1018.1
20260901000003 20 24 0.0 0.0 0.00 0.00 0.00 90 1018.1
20260831235003 20 24 0.0 0.0 0.00 0.00 0.00 90 1018.1
20260831234004 20 24 0.0 0.0 0.00 0.00 0.00 90 1018.2
20260831233003 20 24 0.0 0.0 0.00 0.00 0.00 90 1018.2
20260831232003 20 24 0.0 0.0 0.00 0.00 0.00 90 1018.2
20260831231003 20 24 0.0 0.0 0.00 0.00 0.00 90 1018.3
20260831230003 20 24 0.0 0.0 0.00 0.00 0.00 90 1018.3
20260831224003 20 24 0.0 4.8 0.00 0.00 0.00 90 1018.7
20260831223004 20 29 3.2 4.8 0.00 0.00 0.00 89 1018.7
20260831221003 20 19 0.0 8.0 0.00 0.00 0.00 90 1018.8
20260831220004 21 39 0.0 8.0 0.00 0.00 0.00 90 1018.8
20260831215004 21 70 3.2 8.0 0.00 0.00 0.00 88 1018.8
20260831214003 21 68 3.2 12.9 0.00 0.00 0.00 87 1018.7
20260831213004 22 66 6.4 14.5 0.00 0.00 0.00 83 1018.6
20260831212004 23 59 9.7 19.3 0.00 0.00 0.00 77 1018.6
20260831211003 24 72 1.6 4.8 0.00 0.00 0.00 75 1018.4
20260831210003 25 238 0.0 0.0 0.00 0.00 0.00 74 1018.3
20260831204003 25 238 0.0 1.6 0.00 0.00 0.00 72 1018.4
20260831203004 25 238 0.0 3.2 0.00 0.00 0.00 73 1018.4
20260831202003 25 267 0.0 3.2 0.00 0.00 0.00 69 1018.4
20260831201003 26 271 0.0 0.0 0.00 0.00 0.00 70 1018.5
20260831200003 26 271 0.0 4.8 0.00 0.00 0.00 71 1018.5
20260831195003 26 133 0.0 1.6 0.00 0.00 0.00 71 1018.6
20260831194003 26 71 0.0 3.2 0.00 0.00 0.00 72 1018.7
20260831192004 26 110 1.6 4.8 0.00 0.00 0.00 69 1018.8
20260831191003 26 83 3.2 8.0 0.00 0.00 0.00 71 1018.9
20260831190003 26 74 4.8 9.7 0.00 0.00 0.00 70 1019.0
20260831185003 25 79 0.0 4.8 0.00 0.00 0.00 74 1019.2
20260831184003 25 61 8.0 14.5 0.00 0.00 0.00 70 1019.3
20260831182003 25 47 3.2 9.7 0.00 0.00 0.00 71 1019.6
20260831181005 25 65 3.2 8.0 0.00 0.00 0.00 70 1019.5
20260831175005 25 71 4.8 11.3 0.00 0.00 0.00 73 1019.8
20260831174003 25 275 0.0 4.8 0.00 0.00 0.00 70 1019.9
20260831173003 25 71 3.2 11.3 0.00 0.00 0.00 71 1019.9
20260831172003 25 31 0.0 8.0 0.00 0.00 0.00 73 1020.0
20260831171003 25 74 3.2 9.7 0.00 0.00 0.00 70 1019.9
20260831170003 25 59 3.2 4.8 0.00 0.00 0.00 71 1020.0
20260831165004 25 80 1.6 4.8 0.00 0.00 0.00 71 1020.3
20260831163004 24 49 1.6 9.7 0.00 0.00 0.00 75 1020.7
20260831162004 23 186 3.2 8.0 0.00 0.00 0.00 76 1020.7
20260831161003 23 92 1.6 4.8 0.00 0.00 0.00 76 1020.8
20260831160003 22 236 4.8 9.7 0.00 0.00 0.00 77 1020.9
20260831155003 22 51 3.2 4.8 0.00 0.00 0.00 79 1021.0
20260831154003 22 79 1.6 8.0 0.00 0.00 0.00 80 1021.1
20260831153004 22 185 0.0 4.8 0.00 0.00 0.00 81 1021.3
20260831152005 21 265 3.2 4.8 0.00 0.00 0.00 82 1021.3
20260831150004 20 255 4.8 8.0 0.00 0.00 0.00 84 1021.4
20260831145004 20 254 4.8 9.7 0.00 0.00 0.00 84 1021.1
20260831143003 21 251 3.2 8.0 0.00 0.00 0.00 83 1021.1
20260831142004 20 246 3.2 8.0 0.00 0.00 0.00 85 1021.2
20260831141005 20 237 3.2 12.9 0.00 0.00 0.00 85 1021.3
20260831135004 20 233 3.2 4.8 0.00 0.00 0.00 85 1021.3
20260831134004 20 255 3.2 9.7 0.00 0.00 0.00 86 1021.2
20260831133004 20 262 6.4 11.3 0.00 0.00 0.00 85 1021.2
20260831132003 20 207 1.6 4.8 0.00 0.00 0.00 87 1021.2
20260831131004 19 260 3.2 8.0 0.00 0.00 0.00 88 1021.2
20260831130003 19 254 1.6 4.8 0.00 0.00 0.00 90 1021.3
20260831125003 18 241 3.2 8.0 0.00 0.00 0.00 91 1021.3
20260831123003 18 256 6.4 9.7 0.00 0.00 0.00 95 1021.4
20260831122003 17 258 0.0 0.0 0.00 0.00 0.00 96 1021.3
20260831121003 17 43 0.0 0.0 0.00 0.00 0.00 96 1021.2
20260831120005 17 113 0.0 0.0 0.00 0.00 0.00 96 1021.1
20260831115003 17 74 0.0 0.0 0.00 0.00 0.00 96 1021.1
20260831113004 16 52 0.0 0.0 0.00 0.00 0.00 96 1021.0
20260831112003 16 52 0.0 0.0 0.00 0.00 0.00 96 1021.0
20260831111002 16 52 0.0 0.0 0.00 0.00 0.00 96 1020.8
20260831110004 16 52 0.0 0.0 0.00 0.00 0.00 95 1020.6
20260831105004 16 52 0.0 0.0 0.00 0.00 0.00 95 1020.5
20260831104003 16 52 0.0 0.0 0.00 0.00 0.00 95 1020.4
20260831103003 16 52 0.0 0.0 0.00 0.00 0.00 95 1020.3
20260831102003 16 55 0.0 0.0 0.00 0.00 0.00 95 1020.3
20260831101003 16 55 0.0 0.0 0.00 0.00 0.00 95 1020.2
20260831100003 16 55 0.0 0.0 0.00 0.00 0.00 95 1020.2
20260831095003 16 58 0.0 0.0 0.00 0.00 0.00 95 1020.1
20260831092003 16 58 0.0 0.0 0.00 0.00 0.00 95 1020.1
20260831091004 16 58 0.0 0.0 0.00 0.00 0.00 95 1020.0
20260831090004 16 58 0.0 0.0 0.00 0.00 0.00 94 1019.9
20260831085004 16 58 0.0 0.0 0.00 0.00 0.00 95 1020.0
20260831084003 16 58 0.0 0.0 0.00 0.00 0.00 94 1020.0
20260831083003 16 58 0.0 0.0 0.00 0.00 0.00 94 1019.9
20260831082004 16 58 0.0 0.0 0.00 0.00 0.00 95 1019.9
20260831080003 16 58 0.0 0.0 0.00 0.00 0.00 94 1019.7
20260831075004 16 58 0.0 1.6 0.00 0.00 0.00 94 1019.6
20260831074003 16 58 0.0 1.6 0.00 0.00 0.00 94 1019.7
20260831073004 16 58 0.0 3.2 0.00 0.00 0.00 95 1019.6
20260831072003 16 32 0.0 0.0 0.00 0.00 0.00 94 1019.5
20260831071003 16 32 0.0 4.8 0.00 0.00 0.00 94 1019.5
20260831063003 16 24 0.0 0.0 0.00 0.00 0.00 93 1019.7
20260831061003 16 24 0.0 0.0 0.00 0.00 0.00 93 1019.6
20260831055003 16 22 0.0 0.0 0.00 0.00 0.00 93 1019.5
20260831054005 16 22 0.0 0.0 0.00 0.00 0.00 92 1019.5
20260831053005 17 22 0.0 0.0 0.00 0.00 0.00 92 1019.6
20260831044004 17 22 0.0 3.2 0.00 0.00 0.00 91 1019.6
20260831043003 17 22 0.0 3.2 0.00 0.00 0.00 91 1019.6
20260831042004 18 163 0.0 0.0 0.00 0.00 0.00 90 1019.6
20260831040005 18 163 0.0 0.0 0.00 0.00 0.00 90 1019.8
20260831035005 18 98 0.0 0.0 0.00 0.00 0.00 89 1019.6
20260831034003 18 79 0.0 0.0 0.00 0.00 0.00 89 1019.5
20260831033004 18 79 0.0 3.2 0.00 0.00 0.00 88 1019.5
20260831032003 18 71 3.2 4.8 0.00 0.00 0.00 88 1019.5
20260831031004 18 59 1.6 8.0 0.00 0.00 0.00 88 1019.5
20260831030004 18 63 3.2 8.0 0.00 0.00 0.00 88 1019.6
20260831025003 18 44 0.0 8.0 0.00 0.00 0.00 87 1019.6